Location: Wingville
(42.9917°N, 90.4915°W)
Time: 13:41:29
(UTC+00:00)

LO-87 - Pass Details

Date: 25 June 2022
Orbit: 450 x 466 km, 97.4° (Epoch: 18 August)

Event Time Altitude Azimuth Distance (km) Brightness Sun altitude
Exits shadow 04:41:09 17° 71° (ENE) 1,222 ? -20.9°
Maximum altitude 04:41:18 17° 67° (ENE) 1,221 ? -20.9°
Drops below altitude 10° 04:43:38 10° 25° (NNE) 1,610 ? -21.1°
Sets 04:46:11 0° 5° (N) 2,495 ? -21.2°
